When you browse on this site, cookies collect data to enhance your experience and personalize the content and advertising you see.
Visit our Privacy Policy to learn more. By continuing to use the site, you agree to this use of cookies and data.
  • In Hungary
  • List of Countries
  • For 7 days
  • Water Temperature
  • Satellite Maps
  • Weather Map
  • News
  • Weather Widgets
  • user-avatar
    Login

    Hourly Weather Kumanovo

    Today, 18 November, Sunday

    Time Temperature Precipitation Wind Pressure Humidity
    00:00 +2°C° 0 mm 1 mps 731 mmHg 72%
    01:00 +2°C° 0 mm 1 mps 731 mmHg 73%
    02:00 +3°C° 0 mm 1 mps 731 mmHg 73%
    03:00 +3°C° 0 mm 1 mps 730 mmHg 73%
    04:00 +3°C° 0 mm 1 mps 730 mmHg 73%
    05:00 +3°C° 0.1 mm 1 mps 730 mmHg 73%
    06:00 +3°C° 0.1 mm 1 mps 729 mmHg 73%
    07:00 +3°C° 0.1 mm 1 mps 729 mmHg 73%
    08:00 +4°C° 0.2 mm 1 mps 729 mmHg 71%
    09:00 +5°C° 0.2 mm 1 mps 728 mmHg 69%
    10:00 +6°C° 0.2 mm 1 mps 728 mmHg 66%
    11:00 +6°C° 0.6 mm 1 mps 727 mmHg 69%
    12:00 +6°C° 0.6 mm 1 mps 727 mmHg 71%
    13:00 +6°C° 0.6 mm 1 mps 726 mmHg 73%
    14:00 +6°C° 1 mm 1 mps 725 mmHg 77%
    15:00 +6°C° 1 mm 1 mps 725 mmHg 81%
    16:00 +5°C° 1 mm 1 mps 724 mmHg 85%
    17:00 +5°C° 0.5 mm 1 mps 724 mmHg 86%
    18:00 +5°C° 0.5 mm 1 mps 723 mmHg 87%
    19:00 +4°C° 0.5 mm 1 mps 723 mmHg 88%
    20:00 +4°C° 0.3 mm 1 mps 723 mmHg 88%
    21:00 +4°C° 0.3 mm 1 mps 723 mmHg 88%
    22:00 +4°C° 0.3 mm 1 mps 722 mmHg 88%
    23:00 +4°C° 0 mm 1 mps 722 mmHg 88%

    Tomorrow, 19 November, Monday

    Time Temperature Precipitation Wind Pressure Humidity
    00:00 +4°C° 0 mm 1 mps 722 mmHg 88%
    01:00 +3°C° 0 mm 1 mps 722 mmHg 88%
    02:00 +3°C° 0 mm 1 mps 722 mmHg 88%
    03:00 +3°C° 0 mm 1 mps 722 mmHg 89%
    04:00 +2°C° 0 mm 1 mps 722 mmHg 89%
    05:00 +2°C° 0 mm 1 mps 722 mmHg 89%
    06:00 +2°C° 0 mm 1 mps 722 mmHg 88%
    07:00 +2°C° 0 mm 1 mps 723 mmHg 88%
    08:00 +3°C° 0 mm 1 mps 723 mmHg 85%
    09:00 +5°C° 0 mm 1 mps 723 mmHg 82%
    10:00 +6°C° 0 mm 1 mps 723 mmHg 78%
    11:00 +7°C° 0 mm 1 mps 723 mmHg 77%
    12:00 +8°C° 0 mm 1 mps 723 mmHg 75%
    13:00 +9°C° 0 mm 1 mps 723 mmHg 73%
    14:00 +8°C° 0 mm 1 mps 724 mmHg 75%
    15:00 +7°C° 0 mm 1 mps 724 mmHg 77%
    16:00 +5°C° 0 mm 0 mps 724 mmHg 80%
    17:00 +6°C° 0 mm 1 mps 725 mmHg 81%
    18:00 +6°C° 0 mm 1 mps 725 mmHg 82%
    19:00 +5°C° 0 mm 1 mps 725 mmHg 83%
    20:00 +5°C° 0 mm 1 mps 725 mmHg 82%
    21:00 +5°C° 0 mm 1 mps 726 mmHg 81%
    22:00 +5°C° 0 mm 1 mps 726 mmHg 80%
    23:00 +5°C° 0.2 mm 1 mps 726 mmHg 80%

    Day after tomorrow, 20 November, Tuesday

    Time Temperature Precipitation Wind Pressure Humidity
    00:00 +6°C° 0.2 mm 1 mps 726 mmHg 80%
    01:00 +6°C° 0.2 mm 1 mps 725 mmHg 80%
    02:00 +5°C° 0.8 mm 2 mps 725 mmHg 83%
    03:00 +5°C° 0.8 mm 2 mps 725 mmHg 86%
    04:00 +5°C° 0.8 mm 2 mps 725 mmHg 88%
    05:00 +5°C° 0 mm 2 mps 725 mmHg 89%
    06:00 +5°C° 0 mm 2 mps 725 mmHg 90%
    07:00 +5°C° 0 mm 2 mps 725 mmHg 91%
    08:00 +7°C° 0.1 mm 3 mps 725 mmHg 88%
    09:00 +8°C° 0.1 mm 3 mps 725 mmHg 86%
    10:00 +10°C° 0.1 mm 4 mps 725 mmHg 83%
    11:00 +10°C° 0.1 mm 4 mps 725 mmHg 83%
    12:00 +11°C° 0.1 mm 4 mps 724 mmHg 83%
    13:00 +11°C° 0.1 mm 4 mps 724 mmHg 82%
    14:00 +11°C° 0.1 mm 4 mps 724 mmHg 85%
    15:00 +10°C° 0.1 mm 3 mps 724 mmHg 87%
    16:00 +10°C° 0.1 mm 3 mps 723 mmHg 90%
    17:00 +9°C° 0 mm 3 mps 723 mmHg 91%
    18:00 +9°C° 0 mm 2 mps 723 mmHg 92%
    19:00 +9°C° 0 mm 2 mps 723 mmHg 93%
    20:00 +9°C° 0.3 mm 2 mps 723 mmHg 93%
    21:00 +9°C° 0.3 mm 2 mps 723 mmHg 93%
    22:00 +9°C° 0.3 mm 2 mps 723 mmHg 93%
    23:00 +9°C° 0.5 mm 2 mps 723 mmHg 94%

    21 November, Wednesday

    Time Temperature Precipitation Wind Pressure Humidity
    00:00 +9°C° 0.5 mm 2 mps 722 mmHg 94%
    01:00 +9°C° 0.5 mm 2 mps 722 mmHg 95%
    02:00 +9°C° 0.3 mm 2 mps 721 mmHg 94%
    03:00 +9°C° 0.3 mm 2 mps 721 mmHg 94%
    04:00 +10°C° 0.3 mm 1 mps 720 mmHg 94%
    05:00 +10°C° 0.5 mm 1 mps 720 mmHg 94%
    06:00 +11°C° 0.5 mm 1 mps 720 mmHg 93%
    07:00 +11°C° 0.5 mm 1 mps 720 mmHg 93%
    08:00 +12°C° 0.1 mm 1 mps 720 mmHg 89%
    09:00 +13°C° 0.1 mm 1 mps 721 mmHg 85%
    10:00 +13°C° 0.1 mm 1 mps 721 mmHg 82%
    11:00 +14°C° 0.1 mm 1 mps 721 mmHg 80%
    12:00 +14°C° 0.1 mm 1 mps 721 mmHg 78%
    13:00 +14°C° 0.1 mm 1 mps 721 mmHg 76%
    14:00 +14°C° 0.2 mm 1 mps 721 mmHg 80%
    15:00 +13°C° 0.2 mm 1 mps 722 mmHg 83%
    16:00 +12°C° 0.2 mm 1 mps 722 mmHg 87%
    17:00 +12°C° 0.1 mm 1 mps 723 mmHg 88%
    18:00 +11°C° 0.1 mm 1 mps 723 mmHg 89%
    19:00 +11°C° 0.1 mm 1 mps 723 mmHg 91%
    20:00 +10°C° 0 mm 1 mps 724 mmHg 91%
    21:00 +10°C° 0 mm 1 mps 724 mmHg 91%
    22:00 +10°C° 0 mm 1 mps 724 mmHg 92%
    23:00 +9°C° 0 mm 1 mps 724 mmHg 92%

    22 November, Thursday

    Time Temperature Precipitation Wind Pressure Humidity
    00:00 +9°C° 0 mm 1 mps 725 mmHg 91%
    01:00 +9°C° 0 mm 1 mps 725 mmHg 91%
    02:00 +9°C° 0 mm 1 mps 725 mmHg 91%
    03:00 +9°C° 0 mm 1 mps 725 mmHg 91%
    04:00 +9°C° 0 mm 1 mps 725 mmHg 91%
    05:00 +9°C° 0 mm 1 mps 725 mmHg 91%
    06:00 +9°C° 0 mm 1 mps 726 mmHg 90%
    07:00 +9°C° 0 mm 1 mps 726 mmHg 90%
    08:00 +10°C° 0 mm 1 mps 726 mmHg 84%
    09:00 +12°C° 0 mm 1 mps 726 mmHg 77%
    10:00 +13°C° 0 mm 1 mps 727 mmHg 71%
    11:00 +14°C° 0 mm 1 mps 726 mmHg 68%
    12:00 +14°C° 0 mm 1 mps 726 mmHg 65%
    13:00 +15°C° 0 mm 1 mps 726 mmHg 63%
    14:00 +14°C° 0 mm 1 mps 726 mmHg 67%
    15:00 +13°C° 0 mm 1 mps 727 mmHg 71%
    16:00 +12°C° 0 mm 1 mps 727 mmHg 76%
    17:00 +12°C° 0 mm 1 mps 727 mmHg 79%
    18:00 +11°C° 0 mm 1 mps 728 mmHg 81%
    19:00 +10°C° 0 mm 1 mps 728 mmHg 84%
    20:00 +10°C° 0 mm 1 mps 728 mmHg 85%
    21:00 +10°C° 0 mm 1 mps 729 mmHg 86%
    22:00 +10°C° 0 mm 1 mps 729 mmHg 87%
    23:00 +9°C° 0 mm 1 mps 729 mmHg 87%

    23 November, Friday

    Time Temperature Precipitation Wind Pressure Humidity
    00:00 +9°C° 0 mm 1 mps 729 mmHg 88%
    01:00 +9°C° 0 mm 1 mps 729 mmHg 89%
    02:00 +9°C° 0 mm 1 mps 729 mmHg 89%
    03:00 +8°C° 0 mm 1 mps 729 mmHg 89%
    04:00 +8°C° 0 mm 1 mps 730 mmHg 89%
    05:00 +8°C° 0.1 mm 1 mps 730 mmHg 89%
    06:00 +8°C° 0.1 mm 1 mps 730 mmHg 89%
    07:00 +8°C° 0.1 mm 1 mps 731 mmHg 89%
    08:00 +10°C° 0 mm 1 mps 731 mmHg 82%
    09:00 +11°C° 0 mm 1 mps 731 mmHg 76%
    10:00 +12°C° 0 mm 1 mps 731 mmHg 70%
    11:00 +13°C° 0 mm 1 mps 731 mmHg 67%
    12:00 +13°C° 0 mm 1 mps 731 mmHg 65%
    13:00 +14°C° 0 mm 1 mps 730 mmHg 62%
    14:00 +13°C° 0 mm 1 mps 730 mmHg 66%
    15:00 +12°C° 0 mm 1 mps 730 mmHg 70%
    16:00 +12°C° 0 mm 1 mps 730 mmHg 73%
    17:00 +11°C° 0 mm 1 mps 730 mmHg 76%
    18:00 +10°C° 0 mm 1 mps 731 mmHg 79%
    19:00 +10°C° 0 mm 1 mps 731 mmHg 82%
    20:00 +9°C° 0 mm 1 mps 731 mmHg 84%
    21:00 +9°C° 0 mm 1 mps 731 mmHg 86%
    22:00 +9°C° 0 mm 1 mps 731 mmHg 88%
    23:00 +8°C° 0 mm 1 mps 730 mmHg 89%
    Show more